Notices

What's New in latest Release from April 7th, 2021:

- Updated Glossary, including Speed of Maximum Gust, and Total Hourly Precipitation

- Updated national and regional climate services offices contacts and prices information

- Addition of station inventory lists for 1981-2010, 1971-2000, and 1961-1990 Normals.

If you haven't already, please take our survey and provide feedback about our website: https://eccc.sondage-survey.ca/f/LanguageSelection.aspx?s=442ca660-fcf1-47c0-95a9-59707d6fd709

Hourly Data Report for October 22, 2019

QUALICUM BEACH AIRPORT
BRITISH COLUMBIA
Current Station Operator: ECCC - MSC

49°20'14.000" N
124°23'38.000" W
58.20 m
1026562
71766
VOQ

Download Data

Hourly Data (October 2019)
Hourly Data Report for October 22, 2019
TIME
LST
Temp Definition
°C
Dew Point Definition
°C
Rel Hum Definition
%
Precip. Amount Definition
mm

Wind Dir Definition
10's deg

Wind Spd Definition
km/h
Visibility Definition
km
Stn Press Definition
kPa
Hmdx Definition


Wind Chill Definition


Weather Definition


00:00 9.3 8.7 96 0.0 16 5   101.17     LegendNANA
01:00 9.2 8.7 96 0.0 26 2   101.29     LegendNANA
02:00 9.2 8.7 97 0.0   0   101.37     LegendNANA
03:00 9.3 8.8 97 0.0 28 5   101.46     LegendNANA
04:00 9.2 8.8 97 0.0 28 4   101.60     LegendNANA
05:00 9.9 9.3 96 0.0 29 11   101.69     LegendNANA
06:00 9.8 9.1 95 0.0 29 8   101.81     LegendNANA
07:00 7.9 7.3 96 0.0 8 5   101.84     LegendNANA
08:00 9.2 8.8 97 0.0 29 4   101.89     LegendNANA
09:00 10.6 9.9 95 0.0 28 6   102.00     LegendNANA
10:00 11.7 8.8 82 0.0 33 11   102.11     LegendNANA
11:00 11.5 8.3 81 0.0 31 12   102.19     LegendNANA
12:00 11.8 8.4 80 0.0 32 13   102.19     LegendNANA
13:00 12.2 7.9 75 0.0 31 11   102.21     LegendNANA
14:00 12.7 7.3 70 0.0 30 10   102.23     LegendNANA
15:00 12.9 6.9 67 0.0 30 7   102.27     LegendNANA
16:00 12.2 7.8 75 0.0 28 6   102.30     LegendNANA
17:00 11.1 8.0 81 0.0 28 5   102.29     LegendNANA
18:00 10.0 7.3 84 0.0 28 7   102.30     LegendNANA
19:00 10.5 6.9 79 0.0 31 14   102.36     LegendNANA
20:00 8.4 6.3 87 0.0 25 5   102.38     LegendNANA
21:00 6.5 5.5 94 0.0 26 4   102.40     LegendNANA
22:00 7.3 5.1 86 0.0 29 7   102.48     LegendNANA
23:00 6.6 5.6 93 0.0 25 6   102.48     LegendNANA

Notes on Data Quality.

Legend

  • E = Estimated
  • M = Missing
  • NA = Not Available*
  • [empty] = Indicates an unobserved value
Date modified: